• In Belarus
  • List of Countries
  • For 7 days
  • Water Temperature
  • Weather Map
  • Weather Widgets
  • user-avatar
    Login

    Hourly Weather Jizzax

    Today, 12 November, Tuesday

    Time Temperature Precipitation Wind Pressure Humidity
    00:00 +5°C° 0 mm 2 mps 735 mmHg 60%
    01:00 +5°C° 0 mm 2 mps 735 mmHg 61%
    02:00 +4°C° 0 mm 2 mps 734 mmHg 61%
    03:00 +5°C° 0 mm 1 mps 734 mmHg 62%
    04:00 +5°C° 0 mm 1 mps 734 mmHg 62%
    05:00 +4°C° 0 mm 1 mps 734 mmHg 63%
    06:00 +4°C° 0 mm 1 mps 734 mmHg 62%
    07:00 +4°C° 0 mm 1 mps 734 mmHg 61%
    08:00 +5°C° 0 mm 1 mps 734 mmHg 60%
    09:00 +6°C° 0 mm 1 mps 734 mmHg 53%
    10:00 +8°C° 0 mm 1 mps 734 mmHg 45%
    11:00 +9°C° 0 mm 2 mps 734 mmHg 38%
    12:00 +10°C° 0 mm 2 mps 734 mmHg 35%
    13:00 +12°C° 0 mm 2 mps 734 mmHg 32%
    14:00 +13°C° 0 mm 2 mps 733 mmHg 29%
    15:00 +12°C° 0 mm 2 mps 733 mmHg 31%
    16:00 +12°C° 0 mm 2 mps 733 mmHg 33%
    17:00 +10°C° 0 mm 2 mps 733 mmHg 34%
    18:00 +10°C° 0 mm 1 mps 733 mmHg 37%
    19:00 +9°C° 0 mm 1 mps 733 mmHg 39%
    20:00 +8°C° 0 mm 1 mps 733 mmHg 41%
    21:00 +7°C° 0 mm 1 mps 733 mmHg 42%
    22:00 +6°C° 0 mm 0 mps 733 mmHg 44%
    23:00 +6°C° 0 mm 0 mps 733 mmHg 45%

    Tomorrow, 13 November, Wednesday

    Time Temperature Precipitation Wind Pressure Humidity
    00:00 +5°C° 0 mm 0 mps 733 mmHg 45%
    01:00 +5°C° 0 mm 0 mps 733 mmHg 46%
    02:00 +5°C° 0 mm 0 mps 732 mmHg 47%
    03:00 +5°C° 0 mm 0 mps 732 mmHg 47%
    04:00 +6°C° 0 mm 1 mps 733 mmHg 47%
    05:00 +6°C° 0 mm 1 mps 733 mmHg 47%
    06:00 +6°C° 0 mm 1 mps 733 mmHg 45%
    07:00 +7°C° 0 mm 1 mps 733 mmHg 44%
    08:00 +7°C° 0 mm 1 mps 733 mmHg 42%
    09:00 +9°C° 0 mm 1 mps 733 mmHg 37%
    10:00 +12°C° 0 mm 1 mps 734 mmHg 31%
    11:00 +14°C° 0 mm 1 mps 734 mmHg 26%
    12:00 +15°C° 0 mm 1 mps 734 mmHg 24%
    13:00 +16°C° 0 mm 2 mps 733 mmHg 22%
    14:00 +17°C° 0 mm 2 mps 733 mmHg 20%
    15:00 +16°C° 0 mm 2 mps 733 mmHg 23%
    16:00 +15°C° 0 mm 1 mps 733 mmHg 25%
    17:00 +14°C° 0 mm 1 mps 733 mmHg 27%
    18:00 +13°C° 0 mm 1 mps 733 mmHg 30%
    19:00 +12°C° 0 mm 1 mps 733 mmHg 32%
    20:00 +11°C° 0 mm 1 mps 733 mmHg 34%
    21:00 +10°C° 0 mm 1 mps 733 mmHg 35%
    22:00 +10°C° 0 mm 1 mps 733 mmHg 36%
    23:00 +10°C° 0 mm 1 mps 733 mmHg 37%

    Day after tomorrow, 14 November, Thursday

    Time Temperature Precipitation Wind Pressure Humidity
    00:00 +10°C° 0 mm 1 mps 733 mmHg 38%
    01:00 +9°C° 0 mm 1 mps 732 mmHg 38%
    02:00 +9°C° 0 mm 1 mps 732 mmHg 39%
    03:00 +9°C° 0 mm 1 mps 732 mmHg 39%
    04:00 +10°C° 0 mm 1 mps 732 mmHg 38%
    05:00 +10°C° 0 mm 1 mps 732 mmHg 38%
    06:00 +10°C° 0 mm 1 mps 732 mmHg 38%
    07:00 +10°C° 0 mm 1 mps 732 mmHg 38%
    08:00 +10°C° 0 mm 1 mps 732 mmHg 38%
    09:00 +12°C° 0 mm 1 mps 733 mmHg 34%
    10:00 +14°C° 0 mm 1 mps 733 mmHg 30%
    11:00 +16°C° 0 mm 1 mps 733 mmHg 27%
    12:00 +16°C° 0.1 mm 2 mps 733 mmHg 26%
    13:00 +17°C° 0.1 mm 2 mps 732 mmHg 25%
    14:00 +18°C° 0.1 mm 2 mps 732 mmHg 24%
    15:00 +17°C° 0 mm 2 mps 732 mmHg 26%
    16:00 +16°C° 0 mm 2 mps 732 mmHg 28%
    17:00 +15°C° 0 mm 2 mps 732 mmHg 30%
    18:00 +14°C° 0 mm 2 mps 732 mmHg 32%
    19:00 +13°C° 0 mm 2 mps 732 mmHg 34%
    20:00 +13°C° 0 mm 2 mps 732 mmHg 36%
    21:00 +12°C° 0 mm 1 mps 732 mmHg 37%
    22:00 +12°C° 0 mm 1 mps 732 mmHg 39%
    23:00 +11°C° 0 mm 1 mps 732 mmHg 40%

    15 November, Friday

    Time Temperature Precipitation Wind Pressure Humidity
    00:00 +11°C° 0 mm 1 mps 732 mmHg 41%
    01:00 +11°C° 0 mm 1 mps 732 mmHg 41%
    02:00 +10°C° 0 mm 1 mps 732 mmHg 42%
    03:00 +9°C° 0 mm 0 mps 732 mmHg 42%
    04:00 +9°C° 0 mm 0 mps 732 mmHg 43%
    05:00 +9°C° 0 mm 0 mps 732 mmHg 43%
    06:00 +9°C° 0 mm 0 mps 732 mmHg 43%
    07:00 +9°C° 0 mm 0 mps 732 mmHg 42%
    08:00 +9°C° 0 mm 0 mps 733 mmHg 42%
    09:00 +12°C° 0 mm 1 mps 733 mmHg 38%
    10:00 +13°C° 0 mm 1 mps 733 mmHg 33%
    11:00 +15°C° 0 mm 2 mps 733 mmHg 29%
    12:00 +16°C° 0 mm 2 mps 733 mmHg 28%
    13:00 +16°C° 0 mm 2 mps 733 mmHg 26%
    14:00 +17°C° 0 mm 3 mps 733 mmHg 25%
    15:00 +16°C° 0 mm 2 mps 733 mmHg 27%
    16:00 +15°C° 0 mm 2 mps 733 mmHg 28%
    17:00 +14°C° 0 mm 2 mps 733 mmHg 30%
    18:00 +13°C° 0 mm 2 mps 733 mmHg 31%
    19:00 +13°C° 0 mm 2 mps 733 mmHg 32%
    20:00 +12°C° 0 mm 1 mps 733 mmHg 34%
    21:00 +11°C° 0 mm 1 mps 733 mmHg 35%
    22:00 +10°C° 0 mm 2 mps 733 mmHg 36%
    23:00 +10°C° 0 mm 2 mps 733 mmHg 36%

    16 November, Saturday

    Time Temperature Precipitation Wind Pressure Humidity
    00:00 +9°C° 0 mm 2 mps 733 mmHg 38%
    01:00 +9°C° 0 mm 2 mps 733 mmHg 40%
    02:00 +8°C° 0 mm 2 mps 733 mmHg 42%
    03:00 +8°C° 0 mm 2 mps 733 mmHg 42%
    04:00 +7°C° 0 mm 2 mps 733 mmHg 43%
    05:00 +7°C° 0 mm 2 mps 734 mmHg 43%
    06:00 +8°C° 0 mm 1 mps 734 mmHg 42%
    07:00 +8°C° 0 mm 1 mps 734 mmHg 42%
    08:00 +8°C° 0 mm 1 mps 734 mmHg 41%
    09:00 +8°C° 0 mm 2 mps 735 mmHg 36%
    10:00 +10°C° 0 mm 2 mps 735 mmHg 32%
    11:00 +13°C° 0 mm 2 mps 735 mmHg 28%
    12:00 +12°C° 0 mm 3 mps 735 mmHg 26%
    13:00 +13°C° 0 mm 3 mps 735 mmHg 25%
    14:00 +14°C° 0 mm 3 mps 735 mmHg 24%
    15:00 +14°C° 0 mm 2 mps 735 mmHg 26%
    16:00 +13°C° 0 mm 2 mps 735 mmHg 27%
    17:00 +12°C° 0 mm 2 mps 735 mmHg 29%
    18:00 +10°C° 0 mm 2 mps 735 mmHg 31%
    19:00 +11°C° 0 mm 1 mps 735 mmHg 33%
    20:00 +10°C° 0 mm 1 mps 735 mmHg 35%
    21:00 +9°C° 0 mm 1 mps 735 mmHg 36%
    22:00 +9°C° 0 mm 1 mps 735 mmHg 36%
    23:00 +9°C° 0 mm 1 mps 735 mmHg 37%

    17 November, Sunday

    Time Temperature Precipitation Wind Pressure Humidity
    00:00 +8°C° 0 mm 1 mps 735 mmHg 38%
    01:00 +8°C° 0 mm 1 mps 735 mmHg 39%
    02:00 +6°C° 0 mm 0 mps 735 mmHg 40%
    03:00 +6°C° 0 mm 0 mps 735 mmHg 41%
    04:00 +6°C° 0 mm 0 mps 735 mmHg 41%
    05:00 +5°C° 0 mm 0 mps 735 mmHg 42%
    06:00 +6°C° 0 mm 0 mps 735 mmHg 42%
    07:00 +6°C° 0 mm 0 mps 735 mmHg 42%
    08:00 +6°C° 0 mm 0 mps 735 mmHg 41%
    09:00 +8°C° 0 mm 0 mps 735 mmHg 37%
    10:00 +10°C° 0 mm 1 mps 736 mmHg 34%
    11:00 +12°C° 0 mm 1 mps 736 mmHg 30%
    12:00 +13°C° 0 mm 1 mps 735 mmHg 28%
    13:00 +14°C° 0 mm 1 mps 735 mmHg 27%
    14:00 +15°C° 0 mm 1 mps 735 mmHg 26%
    15:00 +14°C° 0 mm 1 mps 735 mmHg 28%
    16:00 +13°C° 0 mm 1 mps 734 mmHg 31%
    17:00 +12°C° 0 mm 1 mps 734 mmHg 33%
    18:00 +11°C° 0 mm 1 mps 734 mmHg 35%
    19:00 +9°C° 0 mm 0 mps 734 mmHg 37%
    20:00 +8°C° 0 mm 0 mps 734 mmHg 39%
    21:00 +8°C° 0 mm 0 mps 734 mmHg 40%
    22:00 +8°C° 0 mm 0 mps 734 mmHg 41%
    23:00 +7°C° 0 mm 0 mps 734 mmHg 42%
    Show more